TimeCDT,TemperatureF,Dew PointF,Humidity,Sea Level PressureIn,VisibilityMPH,Wind Direction,Wind SpeedMPH,Gust SpeedMPH,PrecipitationIn,Events,Conditions,WindDirDegrees,DateUTC
12:58 AM,63.0,56.7,80,29.96,10.0,ESE,4.6,-,N/A,,Clear,120,2013-05-23 05:58:00
1:58 AM,62.6,56.5,80,29.98,10.0,East,6.9,-,N/A,,Partly Cloudy,80,2013-05-23 06:58:00
2:58 AM,61.7,57.6,86,29.99,10.0,ENE,6.9,-,N/A,,Clear,70,2013-05-23 07:58:00
3:58 AM,58.3,55.0,89,30.02,10.0,ENE,11.5,-,N/A,,Clear,60,2013-05-23 08:58:00
4:58 AM,56.1,54.7,95,30.04,10.0,NE,12.7,-,N/A,,Clear,50,2013-05-23 09:58:00
5:58 AM,55.8,54.3,95,30.06,10.0,NE,13.8,-,N/A,,Clear,50,2013-05-23 10:58:00
6:58 AM,55.6,54.1,95,30.09,10.0,NE,12.7,-,N/A,,Clear,50,2013-05-23 11:58:00
7:58 AM,57.0,53.4,88,30.06,10.0,NE,16.1,-,N/A,,Clear,50,2013-05-23 12:58:00
8:58 AM,59.4,53.2,80,30.11,10.0,ENE,16.1,-,N/A,,Clear,60,2013-05-23 13:58:00
9:58 AM,61.0,52.5,74,30.15,10.0,NE,10.4,-,N/A,,Partly Cloudy,50,2013-05-23 14:58:00
10:58 AM,60.1,52.9,77,30.13,10.0,ENE,10.4,-,N/A,,Scattered Clouds,70,2013-05-23 15:58:00
11:58 AM,60.8,53.4,77,30.14,10.0,East,10.4,-,N/A,,Scattered Clouds,80,2013-05-23 16:58:00
12:58 PM,63.3,54.5,73,30.15,10.0,East,10.4,17.3,N/A,,Partly Cloudy,100,2013-05-23 17:58:00
1:58 PM,68.4,55.9,64,30.14,10.0,ENE,8.1,-,N/A,,Scattered Clouds,70,2013-05-23 18:58:00
2:58 PM,70.9,57.4,62,30.12,10.0,ENE,12.7,20.7,N/A,,Partly Cloudy,60,2013-05-23 19:58:00
3:58 PM,70.5,57.0,62,30.13,10.0,ESE,3.5,-,N/A,,Scattered Clouds,120,2013-05-23 20:58:00
4:58 PM,71.2,57.9,63,30.13,10.0,ESE,3.5,-,N/A,,Scattered Clouds,110,2013-05-23 21:58:00
5:58 PM,71.8,58.5,63,30.10,10.0,ENE,15.0,-,N/A,,Clear,70,2013-05-23 22:58:00
6:58 PM,71.1,57.9,63,30.09,10.0,East,10.4,-,N/A,,Clear,80,2013-05-23 23:58:00
7:58 PM,69.8,57.6,65,30.09,10.0,East,8.1,-,N/A,,Clear,90,2013-05-24 00:58:00
8:58 PM,68.0,58.1,71,30.11,10.0,East,5.8,-,N/A,,Clear,100,2013-05-24 01:58:00
9:58 PM,65.8,58.1,76,30.11,10.0,ESE,4.6,-,N/A,,Clear,110,2013-05-24 02:58:00
10:58 PM,64.8,58.3,79,30.17,10.0,East,4.6,-,N/A,,Partly Cloudy,100,2013-05-24 03:58:00
11:58 PM,63.7,59.2,85,30.17,10.0,East,8.1,-,N/A,,Partly Cloudy,90,2013-05-24 04:58:00